Meteo pe oră la Abejuela

Astăzi, 24 Iulie, Sâmbătă

Timp Temperatura Precipitaţii Vânt Presiune Umiditate
00:00 +21°C° 0 mm 1 m/s 650 mmHg 32%
01:00 +21°C° 0 mm 1 m/s 649 mmHg 31%
02:00 +20°C° 0 mm 2 m/s 649 mmHg 30%
03:00 +19°C° 0 mm 2 m/s 649 mmHg 29%
04:00 +20°C° 0 mm 2 m/s 649 mmHg 28%
05:00 +20°C° 0 mm 2 m/s 649 mmHg 27%
06:00 +21°C° 0 mm 2 m/s 649 mmHg 26%
07:00 +24°C° 0 mm 3 m/s 650 mmHg 23%
08:00 +26°C° 0 mm 5 m/s 651 mmHg 19%
09:00 +29°C° 0 mm 6 m/s 651 mmHg 15%
10:00 +30°C° 0 mm 7 m/s 652 mmHg 13%
11:00 +32°C° 0 mm 8 m/s 652 mmHg 11%
12:00 +33°C° 0 mm 9 m/s 652 mmHg 9%
13:00 +34°C° 0 mm 9 m/s 652 mmHg 9%
14:00 +34°C° 0 mm 9 m/s 652 mmHg 9%
15:00 +34°C° 0 mm 9 m/s 652 mmHg 9%
16:00 +33°C° 0 mm 8 m/s 651 mmHg 11%
17:00 +32°C° 0 mm 6 m/s 651 mmHg 13%
18:00 +30°C° 0 mm 5 m/s 651 mmHg 15%
19:00 +27°C° 0 mm 4 m/s 650 mmHg 23%
20:00 +22°C° 0 mm 3 m/s 650 mmHg 31%
21:00 +20°C° 0 mm 1 m/s 649 mmHg 39%
22:00 +20°C° 0 mm 1 m/s 649 mmHg 39%
23:00 +19°C° 0 mm 1 m/s 648 mmHg 38%

Mâine, 25 Iulie, Duminică

Timp Temperatura Precipitaţii Vânt Presiune Umiditate
00:00 +18°C° 0 mm 1 m/s 648 mmHg 38%
01:00 +16°C° 0 mm 0 m/s 648 mmHg 39%
02:00 +15°C° 0 mm 0 m/s 648 mmHg 40%
03:00 +15°C° 0 mm 0 m/s 647 mmHg 41%
04:00 +15°C° 0 mm 0 m/s 648 mmHg 42%
05:00 +16°C° 0 mm 0 m/s 648 mmHg 42%
06:00 +17°C° 0 mm 0 m/s 649 mmHg 43%
07:00 +20°C° 0 mm 1 m/s 649 mmHg 39%
08:00 +21°C° 0 mm 2 m/s 650 mmHg 36%
09:00 +24°C° 0 mm 2 m/s 650 mmHg 32%
10:00 +26°C° 0 mm 3 m/s 650 mmHg 28%
11:00 +27°C° 0 mm 4 m/s 651 mmHg 24%
12:00 +29°C° 0 mm 5 m/s 651 mmHg 20%
13:00 +29°C° 0 mm 5 m/s 651 mmHg 22%
14:00 +29°C° 0 mm 6 m/s 650 mmHg 24%
15:00 +29°C° 0 mm 6 m/s 650 mmHg 25%
16:00 +28°C° 0 mm 6 m/s 650 mmHg 31%
17:00 +26°C° 0 mm 5 m/s 649 mmHg 37%
18:00 +25°C° 0 mm 5 m/s 649 mmHg 42%
19:00 +21°C° 0 mm 4 m/s 649 mmHg 57%
20:00 +18°C° 0 mm 3 m/s 649 mmHg 72%
21:00 +16°C° 0 mm 1 m/s 649 mmHg 88%
22:00 +16°C° 0.1 mm 1 m/s 649 mmHg 88%
23:00 +15°C° 0.1 mm 1 m/s 649 mmHg 88%

Poimâine, 26 Iulie, Luni

Timp Temperatura Precipitaţii Vânt Presiune Umiditate
00:00 +15°C° 0.1 mm 1 m/s 649 mmHg 87%
01:00 +15°C° 0.1 mm 1 m/s 649 mmHg 87%
02:00 +15°C° 0.1 mm 1 m/s 648 mmHg 86%
03:00 +15°C° 0.1 mm 1 m/s 648 mmHg 85%
04:00 +15°C° 0 mm 1 m/s 649 mmHg 82%
05:00 +15°C° 0 mm 1 m/s 649 mmHg 80%
06:00 +14°C° 0 mm 0 m/s 649 mmHg 77%
07:00 +18°C° 0.1 mm 1 m/s 650 mmHg 70%
08:00 +19°C° 0.1 mm 2 m/s 651 mmHg 62%
09:00 +21°C° 0.1 mm 3 m/s 651 mmHg 54%
10:00 +22°C° 0.1 mm 3 m/s 651 mmHg 49%
11:00 +23°C° 0.1 mm 4 m/s 652 mmHg 44%
12:00 +25°C° 0.1 mm 4 m/s 652 mmHg 40%
13:00 +23°C° 0.8 mm 4 m/s 652 mmHg 46%
14:00 +22°C° 0.8 mm 4 m/s 651 mmHg 52%
15:00 +21°C° 0.8 mm 4 m/s 651 mmHg 58%
16:00 +20°C° 0.9 mm 4 m/s 651 mmHg 61%
17:00 +20°C° 0.9 mm 3 m/s 651 mmHg 63%
18:00 +19°C° 0.9 mm 3 m/s 651 mmHg 66%
19:00 +18°C° 0.1 mm 3 m/s 651 mmHg 71%
20:00 +17°C° 0.1 mm 2 m/s 651 mmHg 76%
21:00 +16°C° 0.1 mm 1 m/s 651 mmHg 82%
22:00 +16°C° 0 mm 1 m/s 651 mmHg 83%
23:00 +15°C° 0 mm 1 m/s 651 mmHg 83%

27 Iulie, Marţi

Timp Temperatura Precipitaţii Vânt Presiune Umiditate
00:00 +14°C° 0 mm 0 m/s 651 mmHg 84%
01:00 +15°C° 0 mm 1 m/s 650 mmHg 85%
02:00 +15°C° 0 mm 1 m/s 650 mmHg 86%
03:00 +14°C° 0 mm 1 m/s 650 mmHg 86%
04:00 +14°C° 0 mm 0 m/s 650 mmHg 85%
05:00 +14°C° 0 mm 0 m/s 650 mmHg 84%
06:00 +15°C° 0 mm 0 m/s 651 mmHg 82%
07:00 +19°C° 0 mm 1 m/s 651 mmHg 74%
08:00 +21°C° 0 mm 1 m/s 651 mmHg 66%
09:00 +21°C° 0 mm 2 m/s 652 mmHg 58%
10:00 +24°C° 0 mm 3 m/s 652 mmHg 51%
11:00 +26°C° 0 mm 3 m/s 653 mmHg 44%
12:00 +28°C° 0 mm 4 m/s 653 mmHg 37%
13:00 +28°C° 0 mm 5 m/s 653 mmHg 38%
14:00 +28°C° 0 mm 5 m/s 652 mmHg 39%
15:00 +28°C° 0 mm 6 m/s 652 mmHg 40%
16:00 +26°C° 0 mm 5 m/s 652 mmHg 47%
17:00 +25°C° 0 mm 5 m/s 651 mmHg 55%
18:00 +22°C° 0 mm 4 m/s 651 mmHg 63%
19:00 +21°C° 0 mm 3 m/s 651 mmHg 70%
20:00 +19°C° 0 mm 2 m/s 651 mmHg 77%
21:00 +19°C° 0 mm 1 m/s 651 mmHg 84%
22:00 +18°C° 0 mm 1 m/s 651 mmHg 84%
23:00 +18°C° 0 mm 1 m/s 651 mmHg 84%

28 Iulie, Miercuri

Timp Temperatura Precipitaţii Vânt Presiune Umiditate
00:00 +18°C° 0 mm 1 m/s 651 mmHg 85%
01:00 +16°C° 0 mm 1 m/s 651 mmHg 87%
02:00 +16°C° 0 mm 1 m/s 651 mmHg 90%
03:00 +15°C° 0 mm 1 m/s 651 mmHg 92%
04:00 +15°C° 0 mm 1 m/s 652 mmHg 91%
05:00 +16°C° 0 mm 1 m/s 652 mmHg 90%
06:00 +16°C° 0 mm 1 m/s 652 mmHg 89%
07:00 +17°C° 0 mm 2 m/s 653 mmHg 80%
08:00 +19°C° 0 mm 2 m/s 653 mmHg 71%
09:00 +20°C° 0 mm 3 m/s 654 mmHg 62%
10:00 +22°C° 0 mm 4 m/s 654 mmHg 56%
11:00 +25°C° 0 mm 5 m/s 654 mmHg 49%
12:00 +26°C° 0 mm 5 m/s 655 mmHg 43%
13:00 +26°C° 0 mm 5 m/s 655 mmHg 43%
14:00 +27°C° 0 mm 5 m/s 655 mmHg 44%
15:00 +27°C° 0 mm 5 m/s 654 mmHg 44%
16:00 +26°C° 0 mm 5 m/s 654 mmHg 47%
17:00 +25°C° 0 mm 4 m/s 654 mmHg 50%
18:00 +23°C° 0 mm 4 m/s 654 mmHg 53%
19:00 +21°C° 0 mm 3 m/s 653 mmHg 62%
20:00 +19°C° 0 mm 2 m/s 653 mmHg 71%
21:00 +18°C° 0 mm 1 m/s 653 mmHg 79%
22:00 +18°C° 0 mm 1 m/s 653 mmHg 80%
23:00 +18°C° 0 mm 1 m/s 652 mmHg 81%

29 Iulie, Joi

Timp Temperatura Precipitaţii Vânt Presiune Umiditate
00:00 +16°C° 0 mm 1 m/s 652 mmHg 82%
01:00 +16°C° 0 mm 1 m/s 652 mmHg 81%
02:00 +16°C° 0 mm 1 m/s 652 mmHg 79%
03:00 +15°C° 0 mm 1 m/s 652 mmHg 77%
04:00 +16°C° 0 mm 1 m/s 652 mmHg 71%
05:00 +18°C° 0 mm 1 m/s 652 mmHg 66%
06:00 +19°C° 0 mm 1 m/s 652 mmHg 60%
07:00 +21°C° 0 mm 1 m/s 653 mmHg 51%
08:00 +23°C° 0 mm 1 m/s 653 mmHg 43%
09:00 +26°C° 0 mm 2 m/s 654 mmHg 35%
10:00 +27°C° 0 mm 2 m/s 654 mmHg 32%
11:00 +29°C° 0 mm 3 m/s 654 mmHg 30%
12:00 +30°C° 0 mm 4 m/s 655 mmHg 27%
13:00 +32°C° 0 mm 4 m/s 654 mmHg 27%
14:00 +32°C° 0 mm 5 m/s 654 mmHg 26%
15:00 +33°C° 0 mm 6 m/s 654 mmHg 25%
16:00 +30°C° 0 mm 5 m/s 653 mmHg 29%
17:00 +29°C° 0 mm 4 m/s 653 mmHg 33%
18:00 +28°C° 0 mm 4 m/s 652 mmHg 37%
19:00 +26°C° 0 mm 3 m/s 652 mmHg 44%
20:00 +24°C° 0 mm 2 m/s 652 mmHg 51%
21:00 +22°C° 0 mm 1 m/s 651 mmHg 57%
22:00 +21°C° 0 mm 1 m/s 651 mmHg 58%
23:00 +21°C° 0 mm 1 m/s 651 mmHg 58%
Arată mai mult

Formular de consimțământ

Meteoprog și furnizorii noștri de servicii pot stoca și accesa date personale, precum cookies, identificatori de dispozitiv sau alte tehnologii similare pe dispozitivul dumneavoastră și procesa astfel de date pentru a personaliza conținutul și reclamele, dar și pentru a oferi caracteristici de social media și pentru a analiza traficul.

  • Stocarea și/sau accesarea informațiilor pe dispozitivul dumneavoastră

    Cookies, identificatori de dispozitiv sau alte informații pot fi stocate sau accesate pe dispozitiv în scopurile indicate mai sus.

  • Reclame și conținut personalizat, evaluarea reclamelor și a conținutului, informații despre audiențe și dezvoltarea produselor

    Reclamele și conținutul pot fi personalizate pe baza unui profil. Pot fi adăugate date suplimentare pentru a personaliza mai bine reclamele și conținutul. Performanța reclamelor și conținutului poate fi măsurată. Pot fi obținute informații despre utilizatorii care au văzut reclamele și conținutul. Aceste date pot fi utilizate pentru a dezvolta sau îmbunătăți experiența utilizatorilor, sistemele și software-ul.

Dând clic pe ‘Sunt de acord’, permiteți utilizarea cookie-urilor menționate, a identificatorilor de dispozitiv, balizelor web sau altor tehnologii similare. Setările pot fi modificate din browser-ul dispozitivului dumneavoastră.

În anumite scopuri, interesele legitime pot prima asupra consimțământului. Puteți citi mai multe informații în acest sens în Politica privind Confidențialitatea Datelor și Cookie.